Regional Weather Roundup
Issued by NWS

Home | Current Version | Previous Version | Text Only | Print | Product List | Glossary Off
Versions: 1 2 3 4 5 6 7 8 9 10 11 12 13 14 15 16 17 18 19 20 21 22 23 24 25 26 27 28 29 30 31 32 33 34 35 36 37 38 39 40 41 42 43 44 45 46 47 48 49 50

000
ASUS45 KBOU 271407
RWRCO

WEATHER ROUNDUP FOR COLORADO
NATIONAL WEATHER SERVICE DENVER/BOULDER CO
800 AM MDT WED AUG 27 2014

NOTE: "FAIR" INDICATES FEW OR NO CLOUDS BELOW 12000 FEET WITH NO
SIGNIFICANT WEATHER AND/OR OBSTRUCTIONS TO VISIBILITY.

COZ001>005-013-030-031-271500-
...NORTHWEST COLORADO...

CITY           SKY/WX    TMP DP  RH WIND       PRES   REMARKS
CRAIG          LGT RAIN  54  52  93 CALM      30.31R
HAYDEN         CLOUDY    52  48  87 S3        30.32S
MEEKER         LGT RAIN  54  52  93 CALM      30.31R
MOUNT WERNER   NOT AVBL
STEAMBOAT SPGS CLOUDY    51  50  97 SE5       30.32S
WALDEN         CLOUDY    50  46  87 SE3       30.36S
$$

COZ006>008-011-271500-
...WEST CENTRAL VALLEYS...

CITY           SKY/WX    TMP DP  RH WIND       PRES   REMARKS
GRAND JUNCTION LGT RAIN  57  55  93 SE12      30.23F
MONTROSE       LGT RAIN  55  53  93 CALM      30.34R
EAGLE          PTSUNNY   55  55 100 E3        30.34R
RIFLE          PTSUNNY   56  54  93 CALM      30.28R
DELTA          RAIN      58  57  98 CALM      30.30S
NUCLA          PTSUNNY   54  52  94 SE5       30.35R
$$

COZ017>023-064>068-271500-
...SOUTHWEST COLORADO...

CITY           SKY/WX    TMP DP  RH WIND       PRES   REMARKS
DURANGO        CLOUDY    51  50  96 SE3       30.38R
CORTEZ         CLOUDY    53  52  96 E8        30.34S
PAGOSA SPRINGS CLOUDY    52  52 100 CALM      30.42R
TELLURIDE      MOSUNNY   48  43  81 CALM      30.46R
WOLF CREEK PAS SNOW      36  36 100 SW12G20   30.59S VSB<1/4
$$

COZ009-010-012-014-032>034-037-058>063-271500-
...CENTRAL COLORADO...

CITY           SKY/WX    TMP DP  RH WIND       PRES   REMARKS
ASPEN          CLOUDY    52  49  89 CALM      30.36S
BUENA VISTA    MOSUNNY   49  48  97 CALM      30.37R
COPPER MTN     PTSUNNY   45  37  76 SW6       30.57S HAZE
BERTHOUD PASS  LGT RAIN  36  34  93 NW10G20   30.59F VSB<1/4
COTTONWOOD PAS MOSUNNY   50  43  76 CALM      30.46R
GUNNISON       CLOUDY    48  45  87 CALM      30.41R
KREMMLING      CLOUDY    52  48  87 CALM      30.36S
LEADVILLE      CLOUDY    46  44  93 N5        30.45R
MONARCH PASS   FOG       37  37 100 W25       30.66R VSB<1/4
SALIDA         MOSUNNY   54  51  88 N6        30.42R
SUNLIGHT       CLOUDY    45  43  93 CALM      30.52S
WILKERSON PASS NOT AVBL
$$

COZ069>075-271500-
...SAN LUIS VALLEY/SANGRE DE CRISTO MOUNTAINS...

CITY           SKY/WX    TMP DP  RH WIND       PRES   REMARKS
ALAMOSA        PTSUNNY   53  51  93 SE3       30.36R
LA VETA PASS   NOT AVBL
SAGUACHE       CLOUDY    54  52  94 NW3       30.40R
$$

COZ035-036-038>040-271500-
...NORTHERN COLORADO FRONT RANGE...

CITY           SKY/WX    TMP DP  RH WIND       PRES   REMARKS
DENVER INTL AP CLOUDY    62  55  77 SW8       30.17R
DMNS CITY PARK   N/A     61  56  83 W5        30.18R
AURORA         PTSUNNY   60  56  86 SW5       30.19R
FRONT RANGE AP PTSUNNY   61  59  94 CALM      30.18S
ERIE MUNI ARPT CLOUDY    61  58  88 N3        30.16F
BOULDER MUN AP CLOUDY    61  55  82 CALM      30.17S
CENTENNIAL     CLOUDY    61  52  72 W6        30.19S
BROOMFIELD     PTSUNNY   63  55  77 N5        30.19S
FORT COLLINS   CLOUDY    61  55  82 N6        30.18R
LONGMONT       CLOUDY    64  57  79 CALM      30.18R
$$

COZ041-046-047-076>085-087-088-271500-
...PIKES PEAK/PALMER DIVIDE AND SOUTHERN FOOTHILLS...

CITY           SKY/WX    TMP DP  RH WIND       PRES   REMARKS
COLO. SPRINGS  PTSUNNY   59  56  89 SE7       30.24R
A. F. ACADEMY  CLOUDY    56  55  97 E1        30.26R
ELLICOTT         N/A     58  57  97 SE3       30.23R
FALCON         PTSUNNY   57  56  95 S3        30.28S
FORT CARSON    PTSUNNY   59  55  85 NE2       30.22R
LIMON          CLOUDY    61  60  97 SE12      30.19R
MONUMENT HILL  CLOUDY    54  52  94 S6        30.26R
TRINIDAD       CLOUDY    63  55  75 W3        30.22R
$$

COZ042>045-048>051-090-091-271500-
...NORTHEAST COLORADO...

CITY           SKY/WX    TMP DP  RH WIND       PRES   REMARKS
GREELEY ARPT   CLOUDY    63  54  72 SE5       30.16R
AKRON          MOSUNNY   63  60  90 S13G23    30.16R
BURLINGTON     CLOUDY    64  62  93 S15       30.16S
WRAY             N/A     66  63  89 S12G17    30.14S
STERLING       MOSUNNY   70  64  83 CALM      30.12R
HOLYOKE        MOSUNNY   64  61  88 S5        30.14S
FORT MORGAN    MOSUNNY   64  59  83 SE3       30.15S
$$

COZ086-089-092>099-271500-
...SOUTHEAST COLORADO...

CITY           SKY/WX    TMP DP  RH WIND       PRES   REMARKS
PUEBLO         PTSUNNY   61  56  83 NW3       30.17R
LA JUNTA       MOSUNNY   65  64  97 SE5       30.14R
LAMAR          CLOUDY    66  64  93 SE9       30.13F
SPRINGFIELD      N/A     64  63  96 S13       30.18S
$$


USA.gov is the U.S. government's official web portal to all federal, state and local government web resources and services.